Location: Cathedral Gorge
(37.8167°N, 114.4167°W)
Time: 13:24:42
(UTC-08:00)

N. Korean satellite - Visible Passes

Search period start: 21 February 2018 00:00
Search period end: 03 March 2018 00:00
Orbit: 459 x 514 km, 97.2° (Epoch: 21 February)

Date Brightness Start Highest point End Pass type
(mag) Time Alt. Az. Time Alt. Az. Time Alt. Az.
21 Feb 10.4 05:15:42 10° ENE 05:17:22 13° E 05:19:03 10° ESE visible
22 Feb 10.1 18:33:12 10° SW 18:35:02 14° W 18:36:52 10° WNW visible
23 Feb 8.9 18:08:08 10° SSW 18:11:08 28° W 18:14:11 10° NW visible
24 Feb 9.5 05:36:42 10° NE 05:39:46 24° E 05:42:51 10° SSE visible
25 Feb 10.5 05:14:17 10° ENE 05:15:53 12° E 05:17:29 10° ESE visible
26 Feb 10.0 18:31:31 10° SW 18:33:28 14° W 18:35:27 10° WNW visible
27 Feb 8.9 18:06:31 10° SSW 18:09:34 29° W 18:12:41 10° NW visible
28 Feb 9.6 05:35:12 10° NE 05:38:15 23° E 05:41:18 10° SSE visible
01 Mar 10.5 05:12:50 10° ENE 05:14:21 12° E 05:15:51 10° ESE visible
02 Mar 10.0 18:29:47 10° SW 18:31:52 15° W 18:34:00 10° NW visible
